Powrót do katalogu

GLOBALSTAR M037

AktywnyŁącznośćLEO
NORAD 25652·PAYLOAD·🇺🇸 United States

Wystrzelony Mar 15, 1999 z Baikonur Cosmodrome

Loading…

Następne Przeloty (najbliższe 24 godziny)

TLE

ŚwieżeSource: Space-Track

Epoka: Sep 13, 2026, 23:38 UTC

1 25652U 99012D   26256.98491253 -.00000082  00000-0  11927-3 0  9997
2 25652  51.9984 242.0320 0002083 104.3331 290.9045 12.62471171268590

Śledź GLOBALSTAR M037 w czasie rzeczywistym z AllMySat

Download on the App Store